Погода в Чите

Погода в Чите : погода сейчас, прогноз погоды и архив. Всё, что Вы хотите узнать о погоде в Чите!

Поиск расширенной информации на нашем сайте:

Другие новости

Новости СМИ2

Главная страница сайта

Новости сайта

02.10.2013

Напоминаем, что на нашем новом сайте вы можете получить высокодетализированные прогнозы погоды по пунктам России, СНГ и мира (включающие важные для авиации метеовеличины, такие как направление и скорость ветра, видимость, явления погоды, количество и форма облачности, нижняя и верхняя граница облачности), а также ознакомиться с разнообразными материалами по авиационной метеорологии и подборкой полезных ссылок на эту тему.

Сайт Метеоцентр.Азия посвящён разработке технологий оптимизации авиаметеорологического обслуживания, включая проектирование и перспективное создание нескольких автоматизированных авиаметеорологических систем:
- система выпуска высокодетальных прогностических карт явлений погоды для нижнего воздушного пространства по России и ближнему зарубежью;
- система верификации прогнозов TAF (выпускаемых синоптиками официальных АМСГ РФ и ближнего зарубежья) и AUTOTAF (выпускаемых сайтом Метеоцентр.Азия) - выявление ошибок, онлайн-сопоставление с фактической погодой METAR, автоматическое внесение коррективов в прогнозы при резком отклонении фактической погоды от прогноза, подсчёт оправдываемости прогнозов по элементам и в целом;
- система обработки, анализа и отображения авиаметеорологической информации для применения провайдерами метеорологической информации.


Погода в Чите - сегодня

Время (UTC), дата Ветер
(°,м/с) 
Видим.   Явления Облачность Т
(°С)
Тd
(°С)
f(%) Тe
(°С)
Pmin
(гПа)
dP
(гПа)
Po
(мм)
O2
(г/м3)
Тmin Tmax R s Состояние
почвы
06 21.03.17 340 (С) 20000 м    10/8 600 м кучево-дожд., верхняя 
[Cb cap|Ci fib]
+2 -13.5 31 +1  1024.8  -1.3  708  284           
09 21.03.17 010 (С) 20000 м    10/8 600 м кучево-дожд., верхняя 
[Cb cap|Ci fib]
+1.3 -14.3 30 1025  708  285           
12 21.03.17 060 (СВ) 50000 м    3/0 верхняя 
[Ci fib]
-3 -13.6 44 -3  1027.2  0.8  708  290    +3.2       
15 21.03.17 080 (В) 50000 м    ясно 
-7.7 -14 61 -10  1029.6  0.8  709  295           
18 21.03.17 080 (В) 50000 м    ясно 
-11.4 -15 75 -11  1031.7  0.8  709  300           
21 21.03.17 тихо ()   50000 м    ясно 
-14.1 -16.4 83 -14  1033.4  0.6  710  303           
00 22.03.17 260 (З) 20000 м  дым  ясно 
-12.5 -15.3 80 -12  1033.8  0.9  711  301  -15.2         
03 22.03.17 тихо ()   20000 м    ясно 
-1.9 -13.7 40 -2  1030.1  -0.2  710  289           
06 22.03.17 330 (СЗ) 20000 м    ясно 
+3.2 -15.3 24 +2  1026.5  -1.8  709  284           
09 22.03.17 260 (З) 20000 м    ясно 
+4.3 -15.3 22 +4  1025.3  -0.8  708  282           
12 22.03.17 080 (В) 50000 м    ясно 
-3 -14 42 -4  1028.5  -0.8  709  290    +4.8       
15 22.03.17 090 (В) 50000 м    ясно 
-7.1 -14.2 57 -7  1030.8  0.8  710  295           
18 22.03.17 тихо ()   50000 м    ясно 
-10.5 -14.7 71 -11  1032.8  0.8  710  299           
21 22.03.17 тихо ()   50000 м    ясно 
-12.8 -15.8 78 -13  1033.9  0.3  711  302           
00 23.03.17 270 (З) 4000 м  мгла  10/0 верхняя 
[Cs]
-11 -14.3 77 -11  1033.8  0.3  711  300  -13.2         
03 23.03.17 210 (ЮЗ) 20000 м  дым  10/0 верхняя 
[Cs]
-2.6 -13.4 43 -2  1030.2  -0.8  710  290           
06 23.03.17 220 (ЮЗ) 20000 м  дым  10/0 верхняя 
[Cs]
+4.4 -13.8 25 +5  1025.5  -2.3  709  282           
09 23.03.17 270 (З) 20000 м    10/3 1000 м верхняя 
[Cu hum|Cs]
+5.5 -17.2 18 +4  1023.7  -1.4  708  281           
12 23.03.17 070 (В) 50000 м    6/0 верхняя 
[Ci fib]
-2.6 -14.6 39 -4  1027.4  1.1  708  289    +6.1       
15 23.03.17 100 (В) 50000 м    4/0 верхняя 
[Ci fib]
-6.1 -14.1 53 -6  1029  0.5  709  293           
18 23.03.17 080 (В) н/о    н/о 
-8.6 -14.8 61 -8  1030.4  0.6  709  296           
21 23.03.17 090 (В) 50000 м    ясно 
-11.4 -15.6 71 -11  1032.1  0.7  710  300           
00 24.03.17 330 (СЗ) 20000 м    ясно 
-9.3 -14.5 66 -9  1032.4  0.9  710  298  -12.3         
03 24.03.17 260 (З) 20000 м    3/0 верхняя 
[Ci fib]
+0.8 -14.3 31 +1  1028.5  -0.6  710  286           
06 24.03.17 320 (СЗ) 20000 м    3/0 верхняя 
[Ci fib]
+5.5 -15.9 20 +4  1024.5  -2.4  708  281           
Время (UTC), дата Ветер
(°,м/с) 
Видим.   Явления Облачность Т
(°С)
Тd
(°С)
f(%) Тe
(°С)
Pmin
(гПа)
dP
(гПа)
Po
(мм)
O2
(г/м3)
Тmin Tmax R s Состояние
почвы

Для получения пояснительной информации подведите курсор к названию столбца.

ПОГОДА в Чите - архив

Всё, что Вы хотите узнать о погоде в Чите - удобно и подробно!

Выберите нужную дату (начиная с 1 января 2015* года) и нажмите кнопку "Найти".
Будут отображены архивные сводки погоды по пункту Чита, начиная с указанной даты.


Отображать данные в формате CSV (для использования в таблицах Excel)


Внимание! Наш архив погоды предназначен исключительно для личного некоммерческого использования в познавательных целях. Если Вам необходимы официальные справки о состоянии погоды (для производственных, юридических, коммерческих и т.п. целей), обращайтесь в органы Росгидромета.

*Примечание: данная дата относится к архиву по метеостанциям СССР (Россия, СНГ, Балтия).
Архив по метеостанциям Зарубежной Европы и Азии (кроме Китая) хранится 10 дней, по другим регионам земного шара (Китай, Африка, Америка, Австралия, Океания) - 1 день.

Чита - район местоположения метеостанции


Название, широта, долгота, высота метеостанции:
Чита (город) 52.1°ш. 113.3°д. 680 м над ур. моря [Российская Федерация]

Дополнительная информация

В oтличие oт бoльшинства пoгoдных сайтoв мы публикуем пoдрoбную метеoинфoрмацию в детальнoм прoфессиoнальнoм фoрмате.

Характеристики температуры и влажнoсти вoздуха измеряются на высoте 2 м в тени вдали oт зданий и деревьев.
Скoрoсть ветра измеряется на высoте 10 м (на урoвне рoста челoвека скoрoсть ветра ниже в 1.5-2 раза). Если метеoстанция нахoдится в гoрoде или в лесу, тo скoрoсть ветра занижена на 2-4 м/с пo сравнению с oткрытым местoм. Скoрoсть ветра над акватoриями крупных рек и oзёр, а также на вершинах хoлмoв на 2-5 м/с выше, чем в oбычных услoвиях.
Атмoсфернoе давление в разных тoчках местнoсти мoжет значительнo oтличаться oт давления на метеoстанции, в зависимoсти oт услoвий рельефа (при пoдъёме на 10 м давление пoнижается примернo на 1 мм рт.ст.).